Regional Weather Roundup
Issued by NWS Cleveland, OH

Home | Current Version | Previous Version | Graphics & Text | Print | Product List | Glossary On
Versions: 1 2 3 4 5 6 7 8 9 10 11 12 13 14 15 16 17 18 19 20 21 22 23 24 25 26 27 28 29 30 31 32 33 34 35 36 37 38 39 40 41 42 43 44 45 46 47 48 49 50
000
ASUS41 KCLE 221010
RWRCLE
OHIO REGIONAL WEATHER ROUNDUP
NATIONAL WEATHER SERVICE WILMINGTON, OH
500 AM EST THU FEB 22 2018

NOTE: "FAIR" INDICATES FEW OR NO CLOUDS BELOW 12,000 FEET WITH NO
SIGNIFICANT WEATHER AND/OR OBSTRUCTIONS TO VISIBILITY.

OHZ001>008-015>018-024>027-034-035-043-044-221100-
   NORTHWEST OHIO

CITY           SKY/WX    TMP DP  RH WIND       PRES   REMARKS
DEFIANCE       CLOUDY    32  26  78 E16G22    30.53F WCI  21
FINDLAY        FRZ RAIN  33  27  78 NE14      30.50F WCI  23
TOLEDO EXPRESS CLOUDY    32  29  88 NE12      30.55S WCI  23
TOLEDO EXEC    CLOUDY    32  27  81 NE8       30.58R WCI  25
LIMA           FRZ RAIN  32  31  96 NE12      30.47F WCI  23
$$

OHZ009>014-019>023-028>033-038-089-221100-
   NORTHEAST OHIO

CITY           SKY/WX    TMP DP  RH WIND       PRES   REMARKS
CLE-HOPKINS    FRZ RAIN  33  30  88 NE9       30.55F WCI  25
CLE-LAKEFRONT  CLOUDY    33  28  81 NE10      30.54F WCI  25
CUY CO. ARPT   NOT AVBL
LORAIN-ELYRIA  MIX PCPN  31  25  78 NE16      30.54S WCI  20
ASHTABULA      CLOUDY    31  27  85 NE7       30.55F WCI  24
AKRON-CANTON   LGT RAIN  34  30  85 NE10      30.48F WCI  26
WOOSTER        LGT RAIN  33  31  92 NE9       30.49F WCI  25
MANSFIELD      FRZ RAIN  32  30  92 NE9       30.48S WCI  24
YOUNGSTOWN     LGTSLEET  33  31  92 NE9       30.50F WCI  25
$$

OHZ042-051>053-060>062-070>072-077>081-221100-
  SOUTHWEST OHIO

CITY           SKY/WX    TMP DP  RH WIND       PRES   REMARKS
CINC-COVINGTON HVY RAIN  38  38 100 NE22      30.35F FOG
CINC-LUNKEN    RAIN      39  37  92 NE13      30.40F FOG
HAMILTON       LGT RAIN  39  32  76 NE7       30.42F
DAYTON         LGT RAIN  36  36 100 E13       30.42F
WRIGHT-PAT AFB LGT RAIN  38  34  86 NE10      30.42F
DAYTON GENERAL LGT RAIN  39  34  82 NE18G28   30.37F
WILMINGTON     LGT RAIN  36  35  96 NE14G22   30.40R
$$

OHZ036-037-039>041-045>050-054>059-063>069-073>076-082>088-221100-
  CENTRAL AND SOUTHEAST OHIO

CITY           SKY/WX    TMP DP  RH WIND       PRES   REMARKS
COLUMBUS       LGT RAIN  37  34  89 NE12G21   30.43F
OSU AIRPORT    LGT RAIN  36  35  96 N10       30.44F
BOLTON FIELD   RAIN      36  34  92 NE12G17   30.42F
RICKENBACK AFB LGT RAIN  36  36  99 NE14      30.42F
NEWARK         LGT RAIN  37  33  85 VRB6      30.44F
MARION         LGT RAIN  33  30  88 NE15      30.47F FOG     WCI  23
LANCASTER      RAIN      37  35  92 NE13      30.43F FOG
ZANESVILLE     RAIN      37  34  89 N8        30.43F
NEW PHILLY     LGT RAIN  36  32  85 N5        30.49S
$$




USA.gov is the U.S. government's official web portal to all federal, state and local government web resources and services.